When you browse on this site, cookies collect data to enhance your experience and personalize the content and advertising you see.
Visit our Privacy Policy to learn more. By continuing to use the site, you agree to this use of cookies and data.
  • In United Kingdom
  • List of Countries
  • For 7 days
  • Water Temperature
  • Weather Map
  • Weather Widgets
  • user-avatar
    Login

    Hourly Weather Holo

    Today, 22 October, Tuesday

    Time Temperature Precipitation Wind Pressure Humidity
    00:00 +27°C° 0.1 mm 5 mps 735 mmHg 87%
    01:00 +26°C° 0.1 mm 4 mps 734 mmHg 87%
    02:00 +26°C° 0 mm 4 mps 734 mmHg 86%
    03:00 +26°C° 0.2 mm 4 mps 734 mmHg 87%
    04:00 +26°C° 0.2 mm 4 mps 734 mmHg 87%
    05:00 +26°C° 0.2 mm 5 mps 734 mmHg 87%
    06:00 +27°C° 0 mm 4 mps 735 mmHg 83%
    07:00 +28°C° 0 mm 4 mps 735 mmHg 79%
    08:00 +29°C° 0 mm 4 mps 735 mmHg 75%
    09:00 +30°C° 0 mm 3 mps 735 mmHg 70%
    10:00 +31°C° 0 mm 3 mps 735 mmHg 66%
    11:00 +32°C° 0 mm 2 mps 735 mmHg 61%
    12:00 +32°C° 0 mm 2 mps 734 mmHg 62%
    13:00 +32°C° 0 mm 2 mps 734 mmHg 63%
    14:00 +31°C° 0 mm 1 mps 733 mmHg 64%
    15:00 +30°C° 0.1 mm 2 mps 733 mmHg 69%
    16:00 +30°C° 0.1 mm 2 mps 733 mmHg 74%
    17:00 +29°C° 0.1 mm 3 mps 734 mmHg 80%
    18:00 +28°C° 0.1 mm 3 mps 734 mmHg 81%
    19:00 +28°C° 0.1 mm 3 mps 734 mmHg 83%
    20:00 +27°C° 0.1 mm 4 mps 735 mmHg 84%
    21:00 +27°C° 0.2 mm 4 mps 735 mmHg 85%
    22:00 +27°C° 0.2 mm 4 mps 735 mmHg 86%
    23:00 +27°C° 0.2 mm 4 mps 735 mmHg 87%

    Tomorrow, 23 October, Wednesday

    Time Temperature Precipitation Wind Pressure Humidity
    00:00 +27°C° 0.6 mm 4 mps 735 mmHg 88%
    01:00 +26°C° 0.6 mm 4 mps 734 mmHg 89%
    02:00 +26°C° 0.6 mm 5 mps 734 mmHg 90%
    03:00 +26°C° 0.8 mm 5 mps 734 mmHg 89%
    04:00 +26°C° 0.8 mm 5 mps 734 mmHg 89%
    05:00 +26°C° 0.8 mm 5 mps 735 mmHg 88%
    06:00 +27°C° 0.2 mm 5 mps 735 mmHg 85%
    07:00 +28°C° 0.2 mm 5 mps 735 mmHg 82%
    08:00 +28°C° 0.2 mm 4 mps 735 mmHg 79%
    09:00 +30°C° 0 mm 3 mps 735 mmHg 73%
    10:00 +31°C° 0 mm 3 mps 735 mmHg 67%
    11:00 +32°C° 0 mm 2 mps 735 mmHg 61%
    12:00 +32°C° 0 mm 2 mps 735 mmHg 60%
    13:00 +32°C° 0 mm 2 mps 734 mmHg 59%
    14:00 +32°C° 0 mm 1 mps 733 mmHg 59%
    15:00 +31°C° 0.1 mm 2 mps 734 mmHg 65%
    16:00 +30°C° 0.1 mm 2 mps 734 mmHg 71%
    17:00 +29°C° 0.1 mm 3 mps 734 mmHg 78%
    18:00 +28°C° 0.1 mm 3 mps 735 mmHg 80%
    19:00 +28°C° 0.1 mm 3 mps 735 mmHg 81%
    20:00 +27°C° 0.1 mm 4 mps 736 mmHg 83%
    21:00 +27°C° 0.3 mm 4 mps 736 mmHg 83%
    22:00 +27°C° 0.3 mm 4 mps 736 mmHg 83%
    23:00 +27°C° 0.3 mm 4 mps 736 mmHg 84%

    Day after tomorrow, 24 October, Thursday

    Time Temperature Precipitation Wind Pressure Humidity
    00:00 +27°C° 0.3 mm 4 mps 735 mmHg 84%
    01:00 +26°C° 0.3 mm 4 mps 735 mmHg 84%
    02:00 +26°C° 0.3 mm 4 mps 735 mmHg 85%
    03:00 +26°C° 0.1 mm 4 mps 735 mmHg 85%
    04:00 +26°C° 0.1 mm 4 mps 735 mmHg 85%
    05:00 +26°C° 0.1 mm 4 mps 735 mmHg 85%
    06:00 +27°C° 0 mm 4 mps 736 mmHg 81%
    07:00 +28°C° 0 mm 4 mps 736 mmHg 77%
    08:00 +29°C° 0 mm 3 mps 737 mmHg 73%
    09:00 +30°C° 0 mm 3 mps 736 mmHg 69%
    10:00 +31°C° 0 mm 3 mps 736 mmHg 65%
    11:00 +32°C° 0 mm 2 mps 736 mmHg 61%
    12:00 +32°C° 0 mm 2 mps 736 mmHg 61%
    13:00 +32°C° 0 mm 2 mps 735 mmHg 60%
    14:00 +32°C° 0 mm 2 mps 734 mmHg 59%
    15:00 +31°C° 0.1 mm 3 mps 734 mmHg 66%
    16:00 +30°C° 0.1 mm 4 mps 735 mmHg 73%
    17:00 +29°C° 0.1 mm 5 mps 735 mmHg 80%
    18:00 +28°C° 0.3 mm 5 mps 735 mmHg 81%
    19:00 +28°C° 0.3 mm 6 mps 736 mmHg 82%
    20:00 +27°C° 0.3 mm 7 mps 736 mmHg 84%
    21:00 +27°C° 0.1 mm 6 mps 736 mmHg 84%
    22:00 +27°C° 0.1 mm 6 mps 736 mmHg 85%
    23:00 +26°C° 0.1 mm 6 mps 736 mmHg 86%

    25 October, Friday

    Time Temperature Precipitation Wind Pressure Humidity
    00:00 +26°C° 0 mm 5 mps 736 mmHg 86%
    01:00 +26°C° 0 mm 5 mps 736 mmHg 87%
    02:00 +26°C° 0 mm 5 mps 735 mmHg 87%
    03:00 +26°C° 0 mm 4 mps 735 mmHg 87%
    04:00 +26°C° 0 mm 4 mps 736 mmHg 87%
    05:00 +26°C° 0 mm 4 mps 736 mmHg 87%
    06:00 +26°C° 0 mm 4 mps 736 mmHg 84%
    07:00 +27°C° 0 mm 4 mps 736 mmHg 81%
    08:00 +28°C° 0 mm 4 mps 737 mmHg 79%
    09:00 +29°C° 0 mm 3 mps 736 mmHg 73%
    10:00 +30°C° 0 mm 3 mps 736 mmHg 68%
    11:00 +32°C° 0 mm 2 mps 736 mmHg 62%
    12:00 +32°C° 0 mm 2 mps 735 mmHg 62%
    13:00 +32°C° 0 mm 2 mps 735 mmHg 62%
    14:00 +32°C° 0 mm 2 mps 734 mmHg 62%
    15:00 +31°C° 0.1 mm 3 mps 735 mmHg 68%
    16:00 +30°C° 0.1 mm 4 mps 735 mmHg 74%
    17:00 +29°C° 0.1 mm 4 mps 735 mmHg 81%
    18:00 +28°C° 0.1 mm 5 mps 736 mmHg 82%
    19:00 +28°C° 0.1 mm 5 mps 736 mmHg 83%
    20:00 +27°C° 0.1 mm 6 mps 737 mmHg 85%
    21:00 +27°C° 0.2 mm 6 mps 737 mmHg 85%
    22:00 +27°C° 0.2 mm 5 mps 737 mmHg 85%
    23:00 +27°C° 0.2 mm 5 mps 737 mmHg 85%

    26 October, Saturday

    Time Temperature Precipitation Wind Pressure Humidity
    00:00 +26°C° 0 mm 5 mps 736 mmHg 85%
    01:00 +26°C° 0 mm 5 mps 736 mmHg 85%
    02:00 +26°C° 0 mm 4 mps 736 mmHg 85%
    03:00 +26°C° 0 mm 4 mps 736 mmHg 86%
    04:00 +26°C° 0 mm 4 mps 736 mmHg 86%
    05:00 +25°C° 0 mm 4 mps 735 mmHg 86%
    06:00 +26°C° 0 mm 4 mps 736 mmHg 83%
    07:00 +27°C° 0 mm 4 mps 736 mmHg 79%
    08:00 +28°C° 0 mm 4 mps 737 mmHg 76%
    09:00 +29°C° 0 mm 3 mps 736 mmHg 71%
    10:00 +30°C° 0 mm 3 mps 736 mmHg 65%
    11:00 +31°C° 0 mm 2 mps 736 mmHg 60%
    12:00 +33°C° 0 mm 3 mps 735 mmHg 59%
    13:00 +33°C° 0 mm 3 mps 735 mmHg 59%
    14:00 +34°C° 0 mm 4 mps 734 mmHg 58%
    15:00 +33°C° 0 mm 4 mps 734 mmHg 64%
    16:00 +32°C° 0 mm 4 mps 734 mmHg 69%
    17:00 +29°C° 0 mm 5 mps 735 mmHg 75%
    18:00 +29°C° 0 mm 5 mps 735 mmHg 78%
    19:00 +28°C° 0 mm 6 mps 735 mmHg 81%
    20:00 +27°C° 0 mm 7 mps 736 mmHg 83%
    21:00 +27°C° 0 mm 6 mps 736 mmHg 84%
    22:00 +27°C° 0 mm 6 mps 736 mmHg 85%
    23:00 +27°C° 0 mm 5 mps 736 mmHg 86%

    27 October, Sunday

    Time Temperature Precipitation Wind Pressure Humidity
    00:00 +27°C° 2 mm 6 mps 735 mmHg 86%
    01:00 +26°C° 2 mm 6 mps 735 mmHg 87%
    02:00 +26°C° 2 mm 6 mps 734 mmHg 87%
    03:00 +26°C° 0.9 mm 6 mps 734 mmHg 87%
    04:00 +26°C° 0.9 mm 6 mps 734 mmHg 87%
    05:00 +26°C° 0.9 mm 6 mps 734 mmHg 88%
    06:00 +27°C° 0.2 mm 6 mps 735 mmHg 84%
    07:00 +28°C° 0.2 mm 5 mps 735 mmHg 80%
    08:00 +29°C° 0.2 mm 5 mps 735 mmHg 77%
    09:00 +30°C° 0.2 mm 5 mps 735 mmHg 73%
    10:00 +32°C° 0.2 mm 4 mps 735 mmHg 69%
    11:00 +32°C° 0.2 mm 4 mps 734 mmHg 66%
    12:00 +32°C° 0.1 mm 4 mps 734 mmHg 67%
    13:00 +32°C° 0.1 mm 4 mps 734 mmHg 68%
    14:00 +32°C° 0.1 mm 5 mps 733 mmHg 69%
    15:00 +30°C° 1.3 mm 5 mps 733 mmHg 73%
    16:00 +29°C° 1.3 mm 5 mps 733 mmHg 77%
    17:00 +28°C° 1.3 mm 6 mps 733 mmHg 81%
    18:00 +28°C° 0.9 mm 6 mps 734 mmHg 82%
    19:00 +27°C° 0.9 mm 6 mps 734 mmHg 84%
    20:00 +27°C° 0.9 mm 6 mps 735 mmHg 85%
    21:00 +27°C° 0.6 mm 6 mps 735 mmHg 85%
    22:00 +27°C° 0.6 mm 6 mps 734 mmHg 85%
    23:00 +27°C° 0.6 mm 6 mps 734 mmHg 86%

    28 October, Monday

    Time Temperature Precipitation Wind Pressure Humidity
    00:00 +26°C° 0.3 mm 5 mps 734 mmHg 86%
    01:00 +26°C° 0.3 mm 5 mps 734 mmHg 87%
    02:00 +26°C° 0.3 mm 5 mps 733 mmHg 87%
    03:00 +26°C° 0.2 mm 5 mps 733 mmHg 88%
    04:00 +26°C° 0.2 mm 4 mps 733 mmHg 88%
    05:00 +26°C° 0.2 mm 4 mps 733 mmHg 88%
    06:00 +27°C° 0 mm 4 mps 734 mmHg 84%
    07:00 +28°C° 0 mm 4 mps 734 mmHg 80%
    08:00 +29°C° 0 mm 4 mps 735 mmHg 75%
    09:00 +30°C° 0 mm 3 mps 734 mmHg 73%
    10:00 +30°C° 0 mm 3 mps 734 mmHg 70%
    11:00 +31°C° 0 mm 2 mps 734 mmHg 67%
    12:00 +30°C° 0.3 mm 2 mps 733 mmHg 71%
    13:00 +30°C° 0.3 mm 3 mps 733 mmHg 75%
    14:00 +29°C° 0.3 mm 3 mps 732 mmHg 79%
    15:00 +28°C° 0.9 mm 4 mps 732 mmHg 81%
    16:00 +28°C° 0.9 mm 4 mps 732 mmHg 83%
    17:00 +27°C° 0.9 mm 5 mps 732 mmHg 86%
    18:00 +27°C° 0.9 mm 5 mps 733 mmHg 87%
    19:00 +27°C° 0.9 mm 5 mps 733 mmHg 88%
    20:00 +26°C° 0.9 mm 4 mps 733 mmHg 89%
    21:00 +26°C° 1.6 mm 5 mps 733 mmHg 90%
    22:00 +26°C° 1.6 mm 5 mps 732 mmHg 91%
    23:00 +26°C° 1.6 mm 5 mps 732 mmHg 92%
    Show more